Location: *
(50.3194°N, 7.1067°E)
Time: 03:19:43
(UTC+00:00)

Cosmos 405 Rocket - Pass Details

Date: 22 September 2019
Orbit: 491 x 554 km, 81.3° (Epoch: 15 October)

Event Time Altitude Azimuth Distance (km) Brightness Sun altitude
Rises 18:31:58 0° 173° (S) 2,558 6.0 -10.5°
Reaches altitude 10° 18:34:08 10° 165° (SSE) 1,684 5.0 -10.9°
Maximum altitude 18:37:35 40° 95° (E) 746 3.0 -11.4°
Drops below altitude 10° 18:41:07 10° 26° (NNE) 1,715 5.2 -12.0°
Sets 18:43:20 0° 18° (NNE) 2,613 6.3 -12.3°
